Location: Unspecified
(0.0000°N, 0.0000°E)
Time: 21:46:00
(UTC+00:00)

Amateur Radio Satellites - All Passes

Search period start: 02 September 2015 21:16
Search period end: 03 September 2015 21:16
Location: Unspecified, 0.0000°N, 0.0000°E

Satellite Date Start Highest point End Downlink Frequencies (MHz)
Time Altitude Azimuth
ZACube-1 02 Sep 21:18:18 21:22:40 60° 79° (E) 21:27:07 437.345
CUTE 1.7 + AOD 2 02 Sep 21:21:58 21:23:07 11° 261° (W) 21:23:54 437.475
FUNcube-1 02 Sep 21:22:46 21:27:09 67° 79° (E) 21:31:38 145.935
CUBEBUG 2 02 Sep 21:26:37 21:30:57 51° 259° (W) 21:35:23 437.445
UWE-3 02 Sep 21:29:27 21:33:51 65° 259° (WSW) 21:38:22 435.000/436.395/437.385
UNISAT 6 02 Sep 21:35:31 21:39:00 24° 100° (E) 21:42:34 437.425
YUBILEINY 02 Sep 21:37:15 21:43:07 18° 276° (W) 21:48:20 435.215
HUMSAT D 02 Sep 21:47:39 21:51:43 44° 79° (E) 21:55:50 437.325/437.525
AUBIESAT-1 02 Sep 22:02:30 22:05:30 31° 104° (ESE) 22:08:30 437.475
TIGRISAT 02 Sep 22:02:31 22:06:48 58° 101° (E) 22:11:03 435.000
DX 1 02 Sep 22:03:00 22:06:54 34° 79° (ENE) 22:10:50 434.975-435.025
Oscar 11 02 Sep 22:08:57 22:11:35 15° 260° (W) 22:13:58 145.826/435.025
M-CUBED/EXP-1 PRIME 02 Sep 22:09:30 22:12:51 56° 105° (ESE) 22:16:06 437.505
UKube-1 02 Sep 22:12:21 22:16:23 40° 79° (ENE) 22:20:26 .
SRMSAT 02 Sep 22:17:47 22:23:29 47° 200° (SSW) 22:29:13 437.500
ANTELSAT 02 Sep 22:20:22 22:24:44 72° 281° (WNW) 22:29:01 437.575/2403.000
POLYITAN 1 02 Sep 22:21:42 22:25:23 29° 101° (E) 22:29:08 437.675
DUCHIFAT 1 02 Sep 22:22:14 22:25:49 27° 101° (E) 22:29:28 145.980
BUGSAT 1 02 Sep 22:22:26 22:24:43 15° 100° (E) 22:27:15 437.445
POPSAT HIP 1 02 Sep 22:23:28 22:27:11 30° 101° (E) 22:30:57 437.405
ESTCUBE 1 02 Sep 22:27:09 22:31:00 29° 79° (E) 22:34:55 437.505/2401.250
CUBEBUG 1 02 Sep 22:28:05 22:31:22 22° 79° (E) 22:34:44 437.445
Cosmos 2504 02 Sep 22:30:43 22:38:17 78° 274° (W) 22:46:26 435.465 / 435.565
DELFI C3 02 Sep 22:31:08 22:32:30 11° 260° (W) 22:33:33 145.870
AISAT 02 Sep 22:32:42 22:36:58 53° 78° (ENE) 22:41:15 437.250
NANOSAT C BR1 02 Sep 22:39:56 22:44:04 53° 101° (E) 22:48:15 145.865
QB50P2 02 Sep 22:40:30 22:44:40 58° 101° (ESE) 22:48:52 145.880/145.840
SO-50 02 Sep 22:44:01 22:48:31 66° 292° (WNW) 22:53:09 436.795
VERMONT LUNAR 02 Sep 22:44:25 22:47:20 41° 317° (NW) 22:50:13 437.305
50 SAT 02 Sep 22:53:05 22:56:57 54° 259° (W) 23:00:49 437.505
QB50P1 02 Sep 22:54:20 22:58:36 89° 289° (WNW) 23:02:52 145.935-145.965
JUGNU 02 Sep 22:56:32 22:59:52 15° 192° (SSW) 23:03:08 437.505
CUSAT 1 02 Sep 23:00:10 23:02:56 55° 277° (W) 23:06:16 437.405
VELOX 1 02 Sep 23:00:13 23:04:35 63° 258° (WSW) 23:08:54 145.980
UNISAT 6 02 Sep 23:13:24 23:15:40 13° 280° (W) 23:17:39 437.425
PCSat 02 Sep 23:22:15 23:27:37 68° 109° (ESE) 23:32:58 145.827
DANDE 02 Sep 23:44:08 23:46:05 18° 280° (W) 23:48:07 436.750
SPROUT 02 Sep 23:50:39 23:54:55 76° 79° (E) 23:59:11 437.525
BUGSAT 1 02 Sep 23:56:44 00:00:03 21° 281° (W) 00:03:15 437.445
BEESAT 3 02 Sep 23:57:28 00:01:03 35° 67° (ENE) 00:04:40 437.485
DUCHIFAT 1 03 Sep 00:00:01 00:01:30 11° 280° (W) 00:02:39 145.980
POLYITAN 1 03 Sep 00:00:11 00:01:11 10° 280° (W) 00:01:49 437.675
POPSAT HIP 1 03 Sep 00:02:16 00:02:56 10° 280° (W) 00:03:15 437.405
CUBEBUG 1 03 Sep 00:05:01 00:07:35 15° 260° (W) 00:09:54 437.445
PHONESAT 2.4 03 Sep 00:05:13 00:08:16 29° 138° (SE) 00:11:21 2401.200-2431.200
RS-15 03 Sep 00:05:34 00:11:45 17° 63° (ENE) 00:19:17 29.354- 29.394
ESTCUBE 1 03 Sep 00:05:45 00:07:45 12° 260° (W) 00:09:26 437.505/2401.250
SRMSAT 03 Sep 00:08:46 00:13:03 20° 195° (SSW) 00:17:17 437.500
BEESAT 2 03 Sep 00:12:31 00:16:13 40° 68° (ENE) 00:19:55 435.950
GONETS M04 03 Sep 00:28:19 00:33:37 19° 96° (E) 00:39:32
ITUPSAT 1 03 Sep 00:28:27 00:29:28 11° 80° (E) 00:30:54 437.325
Oscar 19 03 Sep 00:46:46 00:51:42 47° 102° (ESE) 00:56:40 437.125/150
TISAT 1 03 Sep 00:46:54 00:50:41 32° 259° (W) 00:54:25 437.305
BEESAT 03 Sep 00:57:19 01:01:25 29° 79° (E) 01:05:36 436.000
AIST 2 03 Sep 01:03:24 01:06:38 23° 67° (ENE) 01:09:57 435.215
SWISSCUBE 03 Sep 01:22:55 01:27:43 75° 78° (ENE) 01:32:29 437.505
PHONESAT 2.4 03 Sep 01:43:59 01:46:06 15° 319° (NW) 01:48:06 2401.200-2431.200
Gurwin Techsat 1B 03 Sep 01:44:24 01:49:32 53° 102° (ESE) 01:54:43 435.225
Cosmos 2499 03 Sep 01:49:35 01:52:50 14° 95° (E) 01:56:59 435.465 / 435.565
ITAMSAT 1 03 Sep 01:50:09 01:55:06 47° 102° (ESE) 02:00:08 435.822/435.867
SRMSAT 03 Sep 02:01:29 02:03:08 11° 186° (S) 02:04:45 437.500
ITUPSAT 1 03 Sep 02:02:51 02:07:18 37° 259° (WSW) 02:11:39 437.325
RS-15 03 Sep 02:12:28 02:24:44 81° 248° (WSW) 02:36:59 29.354- 29.394
GONETS M04 03 Sep 02:22:02 02:30:25 52° 274° (W) 02:38:42
BEESAT 03 Sep 02:36:32 02:39:09 14° 259° (W) 02:41:27 436.000
JUGNU 03 Sep 02:37:57 02:40:04 12° 172° (S) 02:42:16 437.505
JAS-2 03 Sep 02:40:48 02:46:44 84° 101° (E) 02:52:08 435.910
AIST 2 03 Sep 02:43:19 02:45:04 12° 246° (WSW) 02:46:35 435.215
STARS 03 Sep 02:46:28 02:50:37 42° 79° (ENE) 02:54:48 437.465
HORYU 2 03 Sep 02:59:26 03:02:50 23° 101° (E) 03:06:23 437.375
KKS-1 03 Sep 03:10:34 03:14:46 41° 259° (WSW) 03:18:56 437.445
AO-7 03 Sep 03:33:31 03:41:47 79° 105° (ESE) 03:50:05 29.400- 29.500
Cosmos 2499 03 Sep 03:38:00 03:45:49 64° 274° (W) 03:54:11 435.465 / 435.565
MOZHAYETS 4 03 Sep 03:38:39 03:42:54 37° 79° (E) 03:47:11
SRMSAT 03 Sep 03:52:18 03:53:30 11° 176° (S) 03:54:46 437.500
O/OREOS (USA 219) 03 Sep 04:06:05 04:08:46 16° 73° (ENE) 04:11:41 437.305
JUGNU 03 Sep 04:25:15 04:29:53 23° 164° (SSE) 04:34:35 437.505
RS-15 03 Sep 04:35:24 04:38:09 10° 241° (WSW) 04:39:02 29.354- 29.394
HORYU 2 03 Sep 04:36:41 04:39:22 15° 280° (W) 04:41:49 437.375
ISS 03 Sep 04:57:55 05:01:08 56° 306° (NW) 05:04:19 145.825
MOZHAYETS 4 03 Sep 05:19:35 05:20:02 10° 260° (W) 05:20:04
Cubesat XI-IV 03 Sep 05:25:56 05:30:39 34° 102° (ESE) 05:35:30 437.490
AO-7 03 Sep 05:31:46 05:34:34 11° 284° (WNW) 05:36:27 29.400- 29.500
CUBESAT XI-V 03 Sep 05:38:25 05:43:02 69° 78° (ENE) 05:47:36 437.345
SRMSAT 03 Sep 05:39:41 05:43:39 18° 166° (SSE) 05:47:41 437.500
O/OREOS (USA 219) 03 Sep 05:44:31 05:48:05 22° 254° (WSW) 05:51:30 437.305
BRITE-PL 03 Sep 06:06:57 06:09:10 13° 99° (E) 06:11:49 437.365/2234.400
CUTE-I 03 Sep 06:09:35 06:14:54 72° 282° (WNW) 06:20:15 437.470
JUGNU 03 Sep 06:13:18 06:19:11 58° 159° (SSE) 06:25:06 437.505
STRAND 1 03 Sep 06:23:31 06:28:24 46° 78° (ENE) 06:33:17 437.568
Cosmos 2491 03 Sep 06:38:54 06:44:14 19° 96° (E) 06:50:12 435.465 / 435.565
PRISM 03 Sep 06:40:51 06:44:51 48° 79° (ENE) 06:48:49 437.425
Cubesat XI-IV 03 Sep 07:07:27 07:10:40 15° 281° (W) 07:13:34 437.490
AIST 1 03 Sep 07:08:53 07:13:01 48° 274° (W) 07:17:07
SRMSAT 03 Sep 07:27:39 07:33:17 41° 160° (SSE) 07:38:55 437.500
BRITE-PL 03 Sep 07:42:11 07:47:37 46° 281° (WNW) 07:52:54 437.365/2234.400
CUTE 1.7 + AOD 2 03 Sep 07:50:03 07:53:52 36° 101° (E) 07:57:47 437.475
GOMX 1 03 Sep 07:59:03 08:04:21 53° 281° (WNW) 08:09:25 467.674
DOVE 4 03 Sep 08:00:55 08:06:05 89° 88° (E) 08:11:02 437.250
HO-68 03 Sep 08:01:42 08:08:47 66° 104° (ESE) 08:15:55 435.675
JUGNU 03 Sep 08:02:27 08:08:17 52° 339° (NNW) 08:14:06 437.505
CANX-2 03 Sep 08:04:06 08:08:16 71° 101° (E) 08:12:28 2200.000
YUBILEINY 03 Sep 08:11:09 08:19:56 82° 267° (W) 08:28:42 435.215
SEEDS 03 Sep 08:21:11 08:25:20 82° 101° (E) 08:29:31 437.485
CINEMA 3 03 Sep 08:28:55 08:33:38 71° 101° (E) 08:38:09 145.822/145.860
Cosmos 2491 03 Sep 08:32:38 08:41:05 52° 274° (W) 08:49:23 435.465 / 435.565
COMPASS 1 03 Sep 08:39:00 08:43:07 75° 281° (WNW) 08:47:16 437.405
Oscar 11 03 Sep 08:40:38 08:44:18 29° 101° (E) 08:48:04 145.826/435.025
AAUSAT CUBESAT 2 03 Sep 08:47:02 08:51:07 71° 281° (WNW) 08:55:15 437.432
Cosmos 2504 03 Sep 08:49:09 08:51:02 11° 82° (E) 08:53:42 435.465 / 435.565
DELFI C3 03 Sep 08:54:24 08:57:36 24° 100° (E) 09:00:55 145.870
SRMSAT 03 Sep 09:16:34 09:22:33 73° 338° (NNW) 09:28:31 437.500
SO-50 03 Sep 09:19:50 09:21:20 12° 64° (ENE) 09:23:10 436.795
ZACube-1 03 Sep 09:28:43 09:33:02 84° 101° (E) 09:37:15 437.345
FUNcube-1 03 Sep 09:32:57 09:37:14 87° 281° (WNW) 09:41:27 145.935
CUBEBUG 2 03 Sep 09:40:00 09:43:59 32° 281° (WNW) 09:47:50 437.445
UWE-3 03 Sep 09:41:28 09:45:37 42° 281° (W) 09:49:39 435.000/436.395/437.385
UNISAT 6 03 Sep 09:48:06 09:52:22 39° 79° (ENE) 09:56:44 437.425
HUMSAT D 03 Sep 09:53:06 09:57:07 52° 101° (E) 10:01:08 437.325/437.525
JUGNU 03 Sep 09:53:10 09:57:39 21° 344° (NNW) 10:02:03 437.505
HO-68 03 Sep 09:53:33 09:56:29 12° 282° (WNW) 09:58:44 435.675
CUSAT 1 03 Sep 09:57:36 10:04:48 37° 82° (E) 10:11:21 437.405
AUBIESAT-1 03 Sep 10:01:46 10:06:06 41° 75° (ENE) 10:10:35 437.475
M-CUBED/EXP-1 PRIME 03 Sep 10:09:17 10:13:54 66° 75° (ENE) 10:18:39 437.505
VERMONT LUNAR 03 Sep 10:10:52 10:13:50 85° 224° (SW) 10:16:50 437.305
DX 1 03 Sep 10:12:27 10:16:39 47° 102° (ESE) 10:20:54 434.975-435.025
TIGRISAT 03 Sep 10:15:16 10:19:52 89° 260° (W) 10:24:31 435.000
PCSat 03 Sep 10:17:58 10:20:28 14° 68° (ENE) 10:23:20 145.827
Oscar 11 03 Sep 10:19:08 10:20:23 11° 279° (W) 10:21:18 145.826/435.025
UKube-1 03 Sep 10:20:58 10:25:12 55° 102° (ESE) 10:29:27 .
BUGSAT 1 03 Sep 10:25:54 10:28:11 15° 80° (E) 10:30:41 437.445
DUCHIFAT 1 03 Sep 10:28:05 10:31:51 33° 79° (E) 10:35:40 145.980
POLYITAN 1 03 Sep 10:28:16 10:32:10 37° 79° (E) 10:36:06 437.675
POPSAT HIP 1 03 Sep 10:29:50 10:33:43 37° 79° (E) 10:37:40 437.405
DELFI C3 03 Sep 10:31:32 10:32:34 11° 279° (W) 10:33:18 145.870
ANTELSAT 03 Sep 10:33:37 10:38:03 47° 259° (W) 10:42:31 437.575/2403.000
Cosmos 2504 03 Sep 10:35:41 10:43:30 65° 267° (W) 10:50:44 435.465 / 435.565
CUBEBUG 1 03 Sep 10:37:46 10:41:39 31° 101° (E) 10:45:38 437.445
ESTCUBE 1 03 Sep 10:40:55 10:45:13 46° 101° (ESE) 10:49:35 437.505/2401.250
DANDE 03 Sep 10:42:36 10:51:01 64° 84° (E) 10:58:44 436.750
AISAT 03 Sep 10:44:36 10:49:04 81° 100° (E) 10:53:34 437.250
NANOSAT C BR1 03 Sep 10:46:08 10:50:19 67° 79° (ENE) 10:54:31 145.865
QB50P2 03 Sep 10:47:09 10:51:23 75° 79° (ENE) 10:55:37 145.880/145.840
50 SAT 03 Sep 10:49:15 10:53:00 62° 281° (WNW) 10:56:46 437.505
SO-50 03 Sep 10:57:34 11:01:51 34° 248° (WSW) 11:05:57 436.795
QB50P1 03 Sep 11:00:53 11:05:06 71° 259° (WSW) 11:09:18 145.935-145.965
SRMSAT 03 Sep 11:06:53 11:11:55 28° 342° (NNW) 11:16:53 437.500
VELOX 1 03 Sep 11:12:15 11:16:30 43° 281° (WNW) 11:20:44 145.980
TISAT 1 03 Sep 11:19:35 11:20:49 11° 100° (E) 11:22:22 437.305
AUBIESAT-1 03 Sep 11:39:47 11:40:44 10° 257° (WSW) 11:41:15 437.475
CUSAT 1 03 Sep 11:40:27 11:47:09 28° 266° (W) 11:52:53 437.405
PHONESAT 2.4 03 Sep 11:42:34 11:45:16 22° 42° (NE) 11:48:03 2401.200-2431.200
JUGNU 03 Sep 11:45:43 11:47:31 11° 353° (N) 11:49:14 437.505
BEESAT 3 03 Sep 11:51:12 11:54:55 39° 112° (ESE) 11:58:43 437.485
RS-15 03 Sep 11:53:06 11:53:43 10° 119° (ESE) 11:55:52 29.354- 29.394
SPROUT 03 Sep 11:58:39 12:02:58 81° 281° (W) 12:07:17 437.525
PCSat 03 Sep 11:58:49 12:03:49 38° 250° (WSW) 12:08:46 145.827
BUGSAT 1 03 Sep 12:00:42 12:03:32 18° 260° (W) 12:06:13 437.445
BEESAT 2 03 Sep 12:07:05 12:10:56 45° 112° (ESE) 12:14:50 435.950
CUBEBUG 1 03 Sep 12:16:32 12:17:54 11° 280° (W) 12:18:57 437.445
DANDE 03 Sep 12:28:36 12:33:55 17° 265° (W) 12:38:20 436.750
ITUPSAT 1 03 Sep 12:48:21 12:51:53 22° 101° (E) 12:55:37 437.325
TISAT 1 03 Sep 12:52:49 12:56:28 27° 281° (W) 13:00:02 437.305
SRMSAT 03 Sep 12:58:59 13:01:45 13° 350° (N) 13:04:27 437.500
GONETS M04 03 Sep 12:59:26 13:07:23 40° 86° (E) 13:15:32
AIST 2 03 Sep 13:01:36 13:05:17 30° 113° (ESE) 13:09:02 435.215
BEESAT 03 Sep 13:18:44 13:23:23 58° 102° (ESE) 13:28:06 436.000
Oscar 19 03 Sep 13:20:20 13:25:26 66° 258° (WSW) 13:30:33 437.125/150
PHONESAT 2.4 03 Sep 13:20:33 13:23:05 19° 221° (SW) 13:25:33 2401.200-2431.200
SWISSCUBE 03 Sep 13:45:05 13:49:44 55° 282° (WNW) 13:54:24 437.505
KKS-1 03 Sep 13:49:04 13:50:54 13° 100° (E) 13:53:03 437.445
RS-15 03 Sep 13:55:48 14:06:45 88° 111° (ESE) 14:17:42 29.354- 29.394
Cosmos 2499 03 Sep 13:59:05 14:03:45 18° 82° (E) 14:08:46 435.465 / 435.565
JAS-2 03 Sep 14:10:57 14:17:41 48° 77° (ENE) 14:25:03 435.910
AO-7 03 Sep 14:11:35 14:15:33 15° 76° (ENE) 14:20:16 29.400- 29.500
Gurwin Techsat 1B 03 Sep 14:22:58 14:28:09 53° 258° (WSW) 14:33:17 435.225
ITAMSAT 1 03 Sep 14:25:07 14:30:17 64° 258° (WSW) 14:35:23 435.822/435.867
ITUPSAT 1 03 Sep 14:26:13 14:29:40 19° 281° (W) 14:32:56 437.325
AIST 2 03 Sep 14:42:59 14:43:46 10° 295° (WNW) 14:44:13 435.215
GONETS M04 03 Sep 14:56:57 15:04:07 26° 265° (W) 15:10:54
STARS 03 Sep 14:57:27 15:01:48 63° 102° (ESE) 15:06:11 437.465
HORYU 2 03 Sep 15:11:35 15:15:38 34° 79° (E) 15:19:44 437.375
KKS-1 03 Sep 15:23:35 15:27:25 28° 281° (W) 15:31:11 437.445
JUGNU 03 Sep 15:24:08 15:27:40 16° 13° (NNE) 15:31:17 437.505
Cosmos 2499 03 Sep 15:49:25 15:56:58 46° 266° (W) 16:03:57 435.465 / 435.565
MOZHAYETS 4 03 Sep 15:55:10 15:59:39 63° 102° (ESE) 16:04:11
JAS-2 03 Sep 15:57:41 16:02:45 20° 261° (W) 16:07:39 435.910
AO-7 03 Sep 15:59:59 16:08:18 67° 255° (WSW) 16:16:32 29.400- 29.500
RS-15 03 Sep 16:15:42 16:19:41 12° 298° (WNW) 16:22:15 29.354- 29.394
O/OREOS (USA 219) 03 Sep 16:16:03 16:19:48 27° 105° (ESE) 16:23:39 437.305
ISS 03 Sep 16:31:15 16:34:28 78° 54° (NE) 16:37:42 145.825
SRMSAT 03 Sep 16:39:36 16:42:16 13° 10° (N) 16:45:02 437.500
HORYU 2 03 Sep 16:51:27 16:52:11 10° 260° (W) 16:52:30 437.375
CUTE-I 03 Sep 17:10:36 17:14:31 22° 79° (E) 17:18:37 437.470
JUGNU 03 Sep 17:11:48 17:17:10 37° 19° (NNE) 17:22:32 437.505
CUBESAT XI-V 03 Sep 17:56:42 18:01:21 66° 281° (W) 18:06:02 437.345
O/OREOS (USA 219) 03 Sep 17:57:03 17:59:08 12° 287° (WNW) 18:00:53 437.305
Cubesat XI-IV 03 Sep 18:05:03 18:10:25 81° 257° (WSW) 18:15:44 437.490
SRMSAT 03 Sep 18:27:10 18:32:06 28° 18° (NNE) 18:37:07 437.500
BRITE-PL 03 Sep 18:32:43 18:35:34 19° 79° (E) 18:38:39 437.365/2234.400
PRISM 03 Sep 18:44:06 18:48:08 55° 102° (ESE) 18:52:14 437.425
GOMX 1 03 Sep 18:47:15 18:49:28 14° 79° (E) 18:51:59 467.674
CUTE-I 03 Sep 18:50:10 18:54:29 24° 258° (WSW) 18:58:38 437.470
YUBILEINY 03 Sep 18:50:25 18:56:44 24° 95° (E) 19:03:32 435.215
STRAND 1 03 Sep 18:55:52 19:00:56 69° 282° (WNW) 19:06:04 437.568
JUGNU 03 Sep 19:00:23 19:06:15 81° 202° (SSW) 19:12:07 437.505
Cosmos 2491 03 Sep 19:10:10 19:18:04 40° 86° (E) 19:26:12 435.465 / 435.565
AIST 1 03 Sep 19:15:39 19:19:40 34° 265° (W) 19:23:39
HO-68 03 Sep 19:53:26 20:00:22 56° 77° (ENE) 20:07:21 435.675
CUTE 1.7 + AOD 2 03 Sep 19:56:29 20:00:37 46° 79° (E) 20:04:44 437.475
CANX-2 03 Sep 20:10:46 20:15:06 90° 255° (WSW) 20:19:23 2200.000
BRITE-PL 03 Sep 20:11:28 20:14:03 15° 261° (W) 20:16:26 437.365/2234.400
SRMSAT 03 Sep 20:15:32 20:21:27 73° 21° (NNE) 20:27:24 437.500
CUBEBUG 2 03 Sep 20:17:04 20:19:45 16° 79° (E) 20:22:43 437.445
UWE-3 03 Sep 20:18:52 20:20:21 12° 80° (E) 20:22:11 435.000/436.395/437.385
DOVE 4 03 Sep 20:22:04 20:26:12 46° 260° (W) 20:30:31 437.250
GOMX 1 03 Sep 20:24:11 20:27:30 22° 261° (W) 20:30:47 467.674
SEEDS 03 Sep 20:26:51 20:31:08 82° 258° (WSW) 20:35:23 437.485
COMPASS 1 03 Sep 20:43:45 20:47:57 63° 259° (W) 20:52:07 437.405
CINEMA 3 03 Sep 20:45:08 20:49:33 69° 259° (W) 20:54:09 145.822/145.860
YUBILEINY 03 Sep 20:45:16 20:53:28 43° 275° (W) 21:01:32 435.215
Oscar 11 03 Sep 20:49:09 20:53:13 39° 79° (E) 20:57:18 145.826/435.025
JUGNU 03 Sep 20:50:19 20:55:24 30° 198° (SSW) 21:00:27 437.505
Cosmos 2504 03 Sep 20:50:26 20:53:50 14° 95° (E) 20:58:04 435.465 / 435.565
AAUSAT CUBESAT 2 03 Sep 20:51:17 20:55:27 61° 259° (W) 20:59:34 437.432
DELFI C3 03 Sep 20:54:31 20:57:51 25° 80° (E) 21:01:15 145.870
